Regional Weather Roundup
Issued by NWS Bismarck, ND

Home | Current Version | Previous Version | Text Only | Print | Product List | Glossary On
Versions: 1 2 3 4 5 6 7 8 9 10 11 12 13 14 15 16 17 18 19 20 21 22 23 24 25 26 27 28 29 30 31 32 33 34 35 36 37 38 39 40 41 42 43 44 45 46 47 48 49 50
168
ASUS43 KBIS 081210
RWRBIS

NWR BROADCAST TEXT
NATIONAL WEATHER SERVICE BISMARCK ND
600 AM CST MON FEB 08 2016

NOTE: "FAIR" INDICATES FEW OR NO CLOUDS BELOW 12,000 FEET WITH NO
SIGNIFICANT WEATHER AND/OR OBSTRUCTIONS TO VISIBILITY.


CITY           SKY/WX    TMP DP  RH WIND       PRES   REMARKS
WILLISTON      CLEAR     23  16  74 NW13      30.35R WCI  11
MINOT          CLEAR     24  15  68 W21       30.24R WCI   9
MINOT AFB      CLEAR     22  17  84 NW21G26   30.24R WCI   6
BISMARCK       CLEAR     27  17  66 NW20G31   30.24S WCI  13
DICKINSON      CLEAR     18  13  80 W14       30.28S WCI   4
GARRISON         N/A     20  17  88 NW21      30.24S WCI   4
HETTINGER ARPT CLEAR     19  13  77 NW12      30.31S WCI   7
JAMESTOWN      CLOUDY    20  12  71 NW25      30.12S WCI   2
BEACH          FAIR      19  14  79 W12       30.37S WCI   7
CARRINGTON     CLOUDY    19  16  86 NW20G29   30.17R WCI   4
HAZEN          FAIR      23  16  74 NW14G22   30.30R WCI  11
LINTON         FAIR      25  18  74 NW21G30   30.23R WCI  10
MANDAN         FAIR      23  18  80 NW18G25   30.24S WCI   9
OAKES          FLURRIES  19  14  79 N22       30.11S WCI   3
RUGBY          FAIR      16  12  86 NW14      30.19R WCI   1
STANLEY        FAIR      19  19 100 NW17G25   30.29R WCI   4
TIOGA          FAIR      18  18 100 NW13      30.36R WCI   4
WATFORD CITY   FAIR      19  16  86 NW9       30.34R WCI   9
$$

CITY           SKY/WX    TMP DP  RH WIND       PRES   REMARKS
GRAND FORKS    LGT SNOW  13   8  81 N18       30.14R BLWGSNOWWCI  -4
GRAND FORKS AF FLURRIES  14   9  79 N21       30.14S WCI  -4
DEVILS LAKE    FLURRIES  16  12  84 N13       30.16R WCI   2
FARGO          FOG       13   9  84 N30G40    30.13R VSB 1/2 WCI  -8
CAVALIER       FLURRIES  14   9  79 N16G25    30.16S WCI  -2
GRAFTON        LGT SNOW  12   9  85 N16G22    30.17R WCI  -4
GWINNER        CLOUDY    21  14  73 N23G37    30.11S WCI   5
LANGDON        CLOUDY    14  10  85 N25       30.12R WCI  -5
ROLLA          FAIR      14  10  85 N24G31    30.15R WCI  -5
WALHALLA       LGT SNOW  14  12  92 N24G33    30.17R WCI  -5
$$

CITY           SKY/WX    TMP DP  RH WIND       PRES   REMARKS
ABERDEEN       CLOUDY    24  16  71 N18G30    30.14R WCI  10
MOBRIDGE       CLEAR     27  17  66 NW24G31   30.19R WCI  12
BUFFALO          N/A     20  12  71 W10       30.27R WCI   9
RAPID CITY     CLOUDY    28   9  44 NW25G33   30.30F WCI  13
GLASGOW        CLOUDY    20  14  77 NW5       30.40S WCI  13
SIDNEY         CLOUDY    23  14  68 W12       30.37R WCI  12
WOLF POINT     CLOUDY    22  16  78 SW7       30.41S WCI  13
GLENDIVE       CLOUDY    23  16  74 W8        30.41R WCI  14
MILES CITY     PTCLDY    23  15  71 W9        30.41R WCI  13
BAKER          CLOUDY    20  13  74 W13       30.36S WCI   7
$$

CITY           SKY/WX    TMP DP  RH WIND       PRES   REMARKS
BILLINGS       CLOUDY    31  13  47 SW10      30.41R
GREAT FALLS    CLOUDY    37  22  54 SW15      30.41R
REGINA         MOCLDY    16  14  93 NW7       30.33R WCI   6
ESTEVAN        CLEAR     18  14  86 NW13      30.30  WCI   4
$$





USA.gov is the U.S. government's official web portal to all federal, state and local government web resources and services.